Location: ??
(34.9170°N, 135.5016°E)
Time: 18:36:55
(UTC+00:00)

Transit 4A - All Passes

Search period start: 28 February 2021 00:00
Search period end: 10 March 2021 00:00
Orbit: 866 x 978 km, 66.8° (Epoch: 28 February)

Date Brightness Start Highest point End Pass type
(mag) Time Alt. Az. Time Alt. Az. Time Alt. Az.
28 Feb - 00:18:48 10° SE 00:22:58 18° ESE 00:27:08 10° ENE daylight
28 Feb - 02:02:26 10° SW 02:08:46 64° WNW 02:15:03 10° NNE daylight
28 Feb - 03:54:37 10° WNW 03:56:20 11° NW 03:58:04 10° NNW daylight
28 Feb - 09:25:21 10° NNE 09:27:42 12° NE 09:30:03 10° ENE visible
28 Feb - 11:09:05 10° NNW 11:15:06 77° ENE 11:20:56 10° SSE visible
28 Feb - 12:58:16 10° WNW 13:00:36 12° WSW 13:02:55 10° SW visible
01 Mar - 00:26:43 10° SSE 00:32:03 29° ESE 00:37:22 10° NE daylight
01 Mar - 02:12:09 10° SW 02:18:10 43° WNW 02:24:10 10° NNE daylight
01 Mar - 09:33:26 10° N 09:37:27 18° NE 09:41:22 10° E visible
01 Mar - 11:18:25 10° NNW 11:24:22 70° WSW 11:30:09 10° SSE visible
02 Mar - 00:35:12 10° S 00:41:12 44° ESE 00:47:09 10° NE daylight
02 Mar - 02:22:13 10° WSW 02:27:41 29° NW 02:33:06 10° N daylight
02 Mar - 09:42:06 10° N 09:47:04 26° NE 09:51:55 10° ESE visible
02 Mar - 11:27:57 10° NW 11:33:34 44° WSW 11:39:03 10° S visible
03 Mar - 00:44:05 10° SSW 00:50:25 68° ESE 00:56:41 10° NNE daylight
03 Mar - 02:32:40 10° W 02:37:17 21° NW 02:41:51 10° N daylight
03 Mar - 09:51:01 10° NNW 09:56:35 38° ENE 10:02:00 10° SE visible
03 Mar - 11:37:45 10° NW 11:42:41 28° WSW 11:47:33 10° SSW visible
03 Mar - 23:11:14 10° SE 23:14:07 13° ESE 23:16:58 10° ENE daylight
04 Mar - 00:53:18 10° SSW 00:59:41 82° WNW 01:06:02 10° NNE daylight
04 Mar - 02:43:44 10° WNW 02:46:59 14° NW 02:50:13 10° NNW daylight
04 Mar - 10:00:06 10° NNW 10:06:01 58° ENE 10:11:45 10° SE visible
04 Mar - 11:48:00 10° WNW 11:51:44 17° WSW 11:55:26 10° SW visible
04 Mar - 23:18:29 10° SSE 23:23:09 22° ESE 23:27:47 10° ENE daylight
05 Mar - 01:02:49 10° SW 01:09:03 55° WNW 01:15:15 10° NNE daylight
05 Mar - 08:25:04 10° NNE 08:28:07 14° NE 08:31:08 10° ENE daylight
05 Mar - 10:09:20 10° NNW 10:15:21 89° ENE 10:21:10 10° SSE visible
05 Mar - 23:26:38 10° S 23:32:15 33° ESE 23:37:50 10° NE daylight
06 Mar - 01:12:39 10° WSW 01:18:29 37° WNW 01:24:18 10° N daylight
06 Mar - 08:33:26 10° N 08:37:49 20° NE 08:42:06 10° E daylight
06 Mar - 10:18:44 10° NW 10:24:35 59° WSW 10:30:17 10° S visible
06 Mar - 23:35:16 10° S 23:41:25 51° ESE 23:47:30 10° NE daylight
07 Mar - 01:22:50 10° WSW 01:28:01 26° NW 01:33:11 10° N daylight
07 Mar - 08:42:12 10° N 08:47:23 30° NE 08:52:28 10° ESE daylight
07 Mar - 10:28:21 10° NW 10:33:45 37° WSW 10:39:02 10° S visible
07 Mar - 23:44:16 10° SSW 23:50:39 78° ESE 23:56:58 10° NNE daylight
08 Mar - 01:33:29 10° W 01:37:39 18° NW 01:41:50 10° N daylight
08 Mar - 08:51:10 10° NNW 08:56:53 44° ENE 09:02:26 10° SE daylight
08 Mar - 10:38:16 10° NW 10:42:51 24° WSW 10:47:21 10° SSW visible
08 Mar - 22:10:36 10° SE 22:14:16 16° ESE 22:17:55 10° ENE daylight
08 Mar - 23:53:36 10° SSW 23:59:58 71° WNW 00:06:16 10° NNE daylight
09 Mar - 01:44:55 10° WNW 01:47:25 12° NW 01:49:53 10° NNW daylight
09 Mar - 07:17:20 10° NNE 07:18:46 11° NE 07:20:10 10° NE daylight
09 Mar - 09:00:19 10° NNW 09:06:16 68° ENE 09:12:03 10° SE daylight
09 Mar - 10:48:50 10° WNW 10:51:52 14° WSW 10:54:54 10° SW visible
09 Mar - 22:18:15 10° SSE 22:23:20 25° ESE 22:28:22 10° NE daylight
